📊 Raw Sensor Data
Showing records 51401 to 51425 of 85,147 total
| ID | Distance (ft) | Battery V | Battery A | Int Temp (°F) | Int Humid (%) | Ext Temp (°F) | Solar V | RSSI | SNR | Time Stamp |
|---|---|---|---|---|---|---|---|---|---|---|
| 33759 | 15.0 | 3.97 | 7 | 64 | 34 | 63 | 5.10 | -76 | 8 | 03/01/2025 10:30 AM |
| 33758 | 15.0 | 3.97 | 7 | 62 | 35 | 63 | 5.10 | -74 | 8 | 03/01/2025 10:15 AM |
| 33757 | 15.0 | 3.97 | 7 | 59 | 35 | 60 | 5.10 | -76 | 8 | 03/01/2025 10:00 AM |
| 33756 | 15.0 | 3.97 | 0 | 57 | 35 | 58 | 5.10 | -76 | 8 | 03/01/2025 09:45 AM |
| 33755 | 15.0 | 3.97 | 0 | 55 | 35 | 57 | 5.10 | -74 | 8 | 03/01/2025 09:30 AM |
| 33754 | 15.0 | 3.97 | 7 | 54 | 35 | 55 | 5.10 | -76 | 8 | 03/01/2025 09:15 AM |
| 33753 | 15.0 | 3.97 | 7 | 52 | 36 | 58 | 5.10 | -77 | 8 | 03/01/2025 09:00 AM |
| 33752 | 14.9 | 3.97 | 7 | 50 | 36 | 56 | 5.10 | -78 | 8 | 03/01/2025 08:45 AM |
| 33751 | 14.9 | 3.98 | 5 | 48 | 36 | 51 | 5.10 | -77 | 7 | 03/01/2025 08:30 AM |
| 33750 | 14.8 | 4.08 | 59 | 47 | 36 | 51 | 4.50 | -76 | 8 | 03/01/2025 08:15 AM |
| 33749 | 14.8 | 4.09 | 69 | 46 | 37 | 51 | 4.50 | -79 | 7 | 03/01/2025 08:00 AM |
| 33748 | 15.0 | 3.94 | -7 | 45 | 37 | 47 | 4.50 | -79 | 8 | 03/01/2025 07:45 AM |
| 33747 | 15.0 | 3.97 | 8 | 45 | 37 | 46 | 4.50 | -79 | 8 | 03/01/2025 07:30 AM |
| 33746 | 15.0 | 3.96 | 0 | 44 | 37 | 46 | 4.50 | -80 | 8 | 03/01/2025 07:15 AM |
| 33745 | 15.0 | 3.90 | 0 | 44 | 37 | 46 | 4.50 | -80 | 7 | 03/01/2025 07:00 AM |
| 33744 | 14.9 | 3.94 | -6 | 44 | 37 | 46 | 4.50 | -80 | 8 | 03/01/2025 06:45 AM |
| 33743 | 14.9 | 3.89 | -5 | 44 | 37 | 45 | 1.20 | -78 | 7 | 03/01/2025 06:30 AM |
| 33742 | 14.9 | 3.89 | -5 | 44 | 37 | 46 | 0.10 | -77 | 7 | 03/01/2025 06:15 AM |
| 33741 | 15.0 | 3.89 | -5 | 44 | 37 | 46 | 0.00 | -77 | 8 | 03/01/2025 06:00 AM |
| 33740 | 15.0 | 3.95 | -5 | 44 | 36 | 46 | 0.10 | -77 | 9 | 03/01/2025 05:45 AM |
| 33739 | 14.9 | 3.89 | -5 | 42 | 37 | 46 | 0.00 | -77 | 8 | 03/01/2025 05:30 AM |
| 33738 | 14.9 | 3.89 | -5 | 39 | 38 | 43 | 0.00 | -77 | 8 | 03/01/2025 05:15 AM |
| 33737 | 14.9 | 3.95 | -5 | 40 | 38 | 42 | 0.00 | -77 | 8 | 03/01/2025 05:00 AM |
| 33736 | 14.9 | 3.89 | -5 | 40 | 38 | 43 | 0.00 | -78 | 9 | 03/01/2025 04:45 AM |
| 33735 | 15.0 | 3.89 | -5 | 40 | 38 | 43 | 0.00 | -77 | 8 | 03/01/2025 04:30 AM |